RYR87J EHAM-EIDW

Flight info

Callsign RYR87J
Flight time N/A
Altitude 35000
Route BERGI L60 PENIL UL28 LELDO M145 BAGSO BAGSO4L
Aircraft B38M/M-SDE1FGHILORVWXY/HB1

Departure

Time 2026-04-18 09:41
Airport Amsterdam Airport Schiphol (EHAM)

Arrival

Time N/A
Airport Dublin Airport (EIDW)
Time Latitude Longitude Altitude Speed Heading
2026-04-18 09:25 52.31053 4.75509 -2 ft 0 kts 148°
2026-04-18 09:30 52.31055 4.75506 -1 ft 1 kts 148°
2026-04-18 09:31 52.31070 4.75492 -1 ft 4 kts 148°
2026-04-18 09:31 52.31093 4.75469 -1 ft 4 kts 148°
2026-04-18 09:31 52.31111 4.75440 -21 ft 4 kts 99°
2026-04-18 09:31 52.31108 4.75398 7 ft 4 kts 70°
2026-04-18 09:32 52.31105 4.75383 -2 ft 0 kts 59°
2026-04-18 09:32 52.31106 4.75387 -1 ft 2 kts 59°
2026-04-18 09:33 52.31137 4.75427 -29 ft 9 kts 23°
2026-04-18 09:33 52.31216 4.75430 -1 ft 14 kts 356°
2026-04-18 09:33 52.31326 4.75419 -2 ft 19 kts 356°
2026-04-18 09:33 52.31428 4.75473 -2 ft 16 kts 72°
2026-04-18 09:34 52.31438 4.75681 -2 ft 21 kts 87°
2026-04-18 09:34 52.31446 4.75935 -1 ft 24 kts 87°
2026-04-18 09:34 52.31455 4.76204 -1 ft 23 kts 86°
2026-04-18 09:34 52.31465 4.76466 -1 ft 23 kts 86°
2026-04-18 09:35 52.31474 4.76724 -2 ft 22 kts 86°
2026-04-18 09:35 52.31483 4.76976 -2 ft 22 kts 86°
2026-04-18 09:35 52.31461 4.77216 -2 ft 21 kts 110°
2026-04-18 09:35 52.31370 4.77368 -2 ft 18 kts 133°
2026-04-18 09:36 52.31273 4.77495 -1 ft 18 kts 163°
2026-04-18 09:36 52.31152 4.77497 -1 ft 17 kts 184°
2026-04-18 09:36 52.31036 4.77486 -2 ft 16 kts 182°
2026-04-18 09:36 52.30924 4.77476 -1 ft 16 kts 183°
2026-04-18 09:37 52.30814 4.77465 -2 ft 16 kts 184°
2026-04-18 09:37 52.30708 4.77456 -2 ft 15 kts 180°
2026-04-18 09:37 52.30614 4.77505 -2 ft 13 kts 153°
2026-04-18 09:37 52.30549 4.77559 -2 ft 8 kts 153°
2026-04-18 09:38 52.30511 4.77592 -2 ft 5 kts 152°
2026-04-18 09:38 52.30483 4.77615 -1 ft 4 kts 152°
2026-04-18 09:38 52.30452 4.77640 0 ft 6 kts 158°
2026-04-18 09:38 52.30401 4.77602 -1 ft 11 kts 231°
2026-04-18 09:39 52.30396 4.77589 -2 ft 0 kts 236°
2026-04-18 09:40 52.30340 4.77447 -3 ft 42 kts 239°
2026-04-18 09:40 52.30067 4.76732 -2 ft 104 kts 238°
2026-04-18 09:40 52.29598 4.75500 105 ft 139 kts 239°
2026-04-18 09:40 52.29092 4.74166 589 ft 137 kts 239°
2026-04-18 09:41 52.28561 4.72813 890 ft 150 kts 240°
2026-04-18 09:41 52.27967 4.71267 1197 ft 170 kts 239°
2026-04-18 09:41 52.27235 4.69625 1596 ft 188 kts 224°
2026-04-18 09:41 52.26235 4.68084 1989 ft 210 kts 226°
2026-04-18 09:42 52.25144 4.66320 2423 ft 230 kts 226°
2026-04-18 09:42 52.24201 4.64192 2881 ft 237 kts 248°
2026-04-18 09:42 52.23642 4.61624 3310 ft 239 kts 251°
2026-04-18 09:42 52.23229 4.59128 3691 ft 239 kts 264°
2026-04-18 09:43 52.23406 4.56409 4112 ft 244 kts 285°
2026-04-18 09:43 52.24240 4.53968 4547 ft 252 kts 307°
2026-04-18 09:43 52.25642 4.52163 4970 ft 262 kts 323°
2026-04-18 09:43 52.27210 4.50622 5360 ft 264 kts 324°
2026-04-18 09:44 52.28790 4.49084 5751 ft 265 kts 324°
2026-04-18 09:44 52.30365 4.47514 6133 ft 266 kts 323°
2026-04-18 09:44 52.31949 4.45925 6537 ft 268 kts 324°
2026-04-18 09:44 52.33545 4.44332 6905 ft 270 kts 324°
2026-04-18 09:45 52.35162 4.42744 7275 ft 273 kts 328°
2026-04-18 09:45 52.37017 4.41880 7677 ft 284 kts 348°
2026-04-18 09:45 52.38999 4.41554 8060 ft 288 kts 351°
2026-04-18 09:45 52.41002 4.41284 8447 ft 290 kts 351°
2026-04-18 09:46 52.43013 4.40976 8838 ft 292 kts 350°
2026-04-18 09:46 52.45014 4.40646 9240 ft 294 kts 349°
2026-04-18 09:46 52.47062 4.40316 9638 ft 297 kts 350°
2026-04-18 09:46 52.49129 4.39994 10045 ft 299 kts 350°
2026-04-18 09:47 52.51209 4.39667 10405 ft 302 kts 349°
2026-04-18 09:47 52.53305 4.39333 10770 ft 303 kts 349°
2026-04-18 09:47 52.55405 4.38999 11139 ft 304 kts 349°
2026-04-18 09:47 52.57520 4.38663 11524 ft 306 kts 349°
2026-04-18 09:48 52.59644 4.38325 11903 ft 307 kts 350°
2026-04-18 09:48 52.61780 4.37985 12288 ft 309 kts 350°
2026-04-18 09:48 52.63925 4.37643 12677 ft 311 kts 350°
2026-04-18 09:48 52.66079 4.37300 13071 ft 312 kts 350°
2026-04-18 09:49 52.68252 4.36952 13469 ft 314 kts 350°
2026-04-18 09:49 52.70438 4.36602 13887 ft 317 kts 350°
2026-04-18 09:49 52.72589 4.35958 14272 ft 311 kts 333°
2026-04-18 09:49 52.74419 4.34155 14676 ft 304 kts 312°
2026-04-18 09:50 52.75697 4.31453 15069 ft 296 kts 291°
2026-04-18 09:50 52.76428 4.28303 15470 ft 294 kts 284°
2026-04-18 09:50 52.77072 4.25091 15853 ft 295 kts 284°
2026-04-18 09:50 52.77714 4.21858 16246 ft 296 kts 284°
2026-04-18 09:51 52.78367 4.18621 16637 ft 298 kts 284°
2026-04-18 09:51 52.79026 4.15363 17033 ft 300 kts 284°
2026-04-18 09:51 52.79684 4.12089 17432 ft 301 kts 284°
2026-04-18 09:51 52.80344 4.08792 17839 ft 303 kts 284°
2026-04-18 09:52 52.81009 4.05473 18246 ft 305 kts 284°
2026-04-18 09:52 52.81674 4.02150 18661 ft 305 kts 284°
2026-04-18 09:52 52.82338 3.98828 19017 ft 305 kts 283°
2026-04-18 09:52 52.83002 3.95487 19380 ft 307 kts 283°
2026-04-18 09:53 52.83669 3.92132 19739 ft 309 kts 283°
2026-04-18 09:53 52.84345 3.88724 20128 ft 314 kts 283°
2026-04-18 09:53 52.85029 3.85270 20512 ft 318 kts 283°
2026-04-18 09:53 52.85722 3.81772 20902 ft 322 kts 283°
2026-04-18 09:54 52.86422 3.78226 21299 ft 326 kts 283°
2026-04-18 09:54 52.87128 3.74644 21699 ft 329 kts 283°
2026-04-18 09:54 52.87840 3.71024 22104 ft 332 kts 283°
2026-04-18 09:54 52.88559 3.67364 22514 ft 335 kts 283°
2026-04-18 09:55 52.89281 3.63679 22924 ft 338 kts 283°
2026-04-18 09:55 52.90008 3.59966 23348 ft 340 kts 283°
2026-04-18 09:55 52.90739 3.56223 23758 ft 342 kts 282°
2026-04-18 09:55 52.91471 3.52463 24139 ft 344 kts 282°
2026-04-18 09:56 52.92206 3.48684 24505 ft 346 kts 282°
2026-04-18 09:56 52.92944 3.44884 24865 ft 347 kts 282°
2026-04-18 09:56 52.93682 3.41074 25215 ft 348 kts 282°
2026-04-18 09:56 52.94423 3.37244 25577 ft 349 kts 282°
2026-04-18 09:57 52.95160 3.33421 25961 ft 349 kts 282°
2026-04-18 09:57 52.95900 3.29577 26340 ft 349 kts 282°
2026-04-18 09:57 52.96638 3.25738 26746 ft 350 kts 282°
2026-04-18 09:57 52.97375 3.21899 27129 ft 349 kts 282°
2026-04-18 09:58 52.98111 3.18052 27536 ft 349 kts 282°
2026-04-18 09:58 52.98843 3.14220 27921 ft 348 kts 282°
2026-04-18 09:58 52.99572 3.10394 28316 ft 348 kts 281°
2026-04-18 09:58 53.00299 3.06575 28720 ft 346 kts 281°
2026-04-18 09:59 53.01022 3.02770 29180 ft 345 kts 281°
2026-04-18 09:59 53.01740 2.98981 29591 ft 343 kts 281°
2026-04-18 09:59 53.02454 2.95202 30010 ft 341 kts 281°
2026-04-18 10:00 53.03865 2.87721 30752 ft 337 kts 281°
2026-04-18 10:00 53.04560 2.84023 31110 ft 334 kts 281°
2026-04-18 10:00 53.05249 2.80351 31458 ft 331 kts 281°
2026-04-18 10:00 53.05932 2.76705 31818 ft 328 kts 281°
2026-04-18 10:01 53.06606 2.73095 32181 ft 325 kts 281°
2026-04-18 10:01 53.07272 2.69526 32538 ft 322 kts 281°
2026-04-18 10:01 53.07931 2.65991 32911 ft 318 kts 281°
2026-04-18 10:01 53.08572 2.62540 33264 ft 314 kts 280°
2026-04-18 10:02 53.09211 2.59092 33631 ft 310 kts 280°
2026-04-18 10:02 53.09842 2.55688 33998 ft 305 kts 280°
2026-04-18 10:02 53.10462 2.52335 34375 ft 300 kts 280°
2026-04-18 10:02 53.10974 2.49032 34686 ft 289 kts 271°
2026-04-18 10:03 53.11234 2.45762 34946 ft 284 kts 271°
2026-04-18 10:03 53.11505 2.42476 34961 ft 289 kts 272°
2026-04-18 10:03 53.11788 2.39142 34976 ft 294 kts 272°
2026-04-18 10:03 53.12068 2.35746 34985 ft 299 kts 272°
2026-04-18 10:04 53.12344 2.32336 34998 ft 304 kts 272°
2026-04-18 10:04 53.12924 2.25216 35008 ft 317 kts 272°
2026-04-18 10:05 53.13523 2.17798 34999 ft 330 kts 272°
2026-04-18 10:05 53.14142 2.10062 34998 ft 344 kts 272°
2026-04-18 10:06 53.14782 2.02010 35014 ft 358 kts 273°
2026-04-18 10:06 53.15443 1.93609 35003 ft 373 kts 273°
2026-04-18 10:07 53.16123 1.84884 35002 ft 387 kts 273°
2026-04-18 10:07 53.16822 1.75852 34998 ft 396 kts 273°
2026-04-18 10:08 53.17519 1.66741 35000 ft 396 kts 273°
2026-04-18 10:08 53.18208 1.57624 34998 ft 396 kts 273°
2026-04-18 10:09 53.18891 1.48501 34993 ft 395 kts 273°
2026-04-18 10:09 53.19561 1.39440 34989 ft 394 kts 272°
2026-04-18 10:10 53.20226 1.30371 34983 ft 394 kts 272°
2026-04-18 10:10 53.20884 1.21291 34980 ft 394 kts 272°
2026-04-18 10:11 53.21425 1.13750 34977 ft 394 kts 272°
2026-04-18 10:11 53.22071 1.04666 34976 ft 394 kts 272°
2026-04-18 10:12 53.22708 0.95602 34986 ft 391 kts 272°
2026-04-18 10:12 53.23334 0.86582 34986 ft 392 kts 272°
2026-04-18 10:13 53.23955 0.77542 34983 ft 392 kts 272°
2026-04-18 10:13 53.24569 0.68507 34983 ft 392 kts 272°
2026-04-18 10:14 53.25173 0.59511 34996 ft 392 kts 272°
2026-04-18 10:14 53.25779 0.50387 34993 ft 393 kts 272°
2026-04-18 10:15 53.26375 0.41300 34972 ft 394 kts 272°
2026-04-18 10:15 53.26965 0.32198 34972 ft 394 kts 272°
2026-04-18 10:16 53.27548 0.23105 34966 ft 394 kts 272°
2026-04-18 10:16 53.28119 0.14072 34960 ft 393 kts 272°
2026-04-18 10:17 53.28686 0.05001 34959 ft 392 kts 272°
2026-04-18 10:17 53.29568 -0.04049 34964 ft 398 kts 276°
2026-04-18 10:18 53.30492 -0.13170 34968 ft 398 kts 276°
2026-04-18 10:18 53.31440 -0.22273 34968 ft 398 kts 276°
2026-04-18 10:19 53.32364 -0.31379 34972 ft 397 kts 276°
2026-04-18 10:19 53.33291 -0.40497 34973 ft 397 kts 275°
2026-04-18 10:20 53.34210 -0.49613 34973 ft 397 kts 275°
2026-04-18 10:20 53.35124 -0.58719 34972 ft 397 kts 275°
2026-04-18 10:21 53.36030 -0.67834 34969 ft 397 kts 275°
2026-04-18 10:21 53.36927 -0.76951 34965 ft 397 kts 275°
2026-04-18 10:22 53.37817 -0.86065 34963 ft 397 kts 275°
2026-04-18 10:22 53.38700 -0.95187 34959 ft 396 kts 275°
2026-04-18 10:23 53.39569 -1.04305 34978 ft 396 kts 275°
2026-04-18 10:23 53.40440 -1.13418 34963 ft 395 kts 275°
2026-04-18 10:24 53.41300 -1.22521 34966 ft 395 kts 275°
2026-04-18 10:24 53.42149 -1.31628 34963 ft 395 kts 275°
2026-04-18 10:25 53.42994 -1.40731 34967 ft 396 kts 275°
2026-04-18 10:25 53.43832 -1.49863 34967 ft 396 kts 275°
2026-04-18 10:26 53.44663 -1.58978 34957 ft 392 kts 275°
2026-04-18 10:26 53.45481 -1.67998 34957 ft 392 kts 275°
2026-04-18 10:27 53.46294 -1.77059 34961 ft 393 kts 275°
2026-04-18 10:27 53.47099 -1.86111 34967 ft 392 kts 275°
2026-04-18 10:28 53.47895 -1.95174 34962 ft 392 kts 275°
2026-04-18 10:28 53.48685 -2.04236 34963 ft 392 kts 275°
2026-04-18 10:29 53.49468 -2.13317 34972 ft 395 kts 275°
2026-04-18 10:29 53.50252 -2.22461 34972 ft 395 kts 275°
2026-04-18 10:30 53.51023 -2.31581 34976 ft 395 kts 275°
2026-04-18 10:30 53.51790 -2.40721 34977 ft 395 kts 275°
2026-04-18 10:30 53.52172 -2.45308 34718 ft 398 kts 275°
2026-04-18 10:31 53.52552 -2.49888 34387 ft 395 kts 275°
2026-04-18 10:31 53.52929 -2.54441 34016 ft 391 kts 274°
2026-04-18 10:31 53.53299 -2.58946 33627 ft 387 kts 275°
2026-04-18 10:31 53.53662 -2.63413 33227 ft 384 kts 275°
2026-04-18 10:32 53.54019 -2.67803 32844 ft 385 kts 275°
2026-04-18 10:32 53.54380 -2.72254 32477 ft 386 kts 275°
2026-04-18 10:32 53.54740 -2.76726 32105 ft 385 kts 275°
2026-04-18 10:32 53.55098 -2.81188 31732 ft 384 kts 275°
2026-04-18 10:33 53.55453 -2.85642 31362 ft 384 kts 274°
2026-04-18 10:33 53.55807 -2.90095 31009 ft 384 kts 274°
2026-04-18 10:33 53.56158 -2.94543 30656 ft 383 kts 274°
2026-04-18 10:33 53.56507 -2.98976 30305 ft 383 kts 274°
2026-04-18 10:34 53.56853 -3.03396 29986 ft 378 kts 274°
2026-04-18 10:34 53.57532 -3.12159 29992 ft 380 kts 275°
2026-04-18 10:35 53.58209 -3.20930 29990 ft 379 kts 275°
2026-04-18 10:35 53.58880 -3.29746 29998 ft 379 kts 275°
2026-04-18 10:36 53.59544 -3.38543 30005 ft 379 kts 275°
2026-04-18 10:36 53.59873 -3.42954 29666 ft 382 kts 275°
2026-04-18 10:36 53.60202 -3.47361 29228 ft 376 kts 275°
2026-04-18 10:36 53.60525 -3.51699 28804 ft 371 kts 275°
2026-04-18 10:37 53.60840 -3.55981 28376 ft 367 kts 275°
2026-04-18 10:37 53.61151 -3.60237 27963 ft 366 kts 275°
2026-04-18 10:37 53.61498 -3.64472 27545 ft 366 kts 279°
2026-04-18 10:37 53.62168 -3.68632 27156 ft 370 kts 286°
2026-04-18 10:38 53.63120 -3.72654 26767 ft 369 kts 289°
2026-04-18 10:38 53.64085 -3.76634 26387 ft 366 kts 288°
2026-04-18 10:38 53.65022 -3.80601 26002 ft 363 kts 288°
2026-04-18 10:38 53.65958 -3.84543 25624 ft 361 kts 289°
2026-04-18 10:39 53.66894 -3.88436 25243 ft 359 kts 289°
2026-04-18 10:39 53.67830 -3.92345 24906 ft 357 kts 289°
2026-04-18 10:39 53.68756 -3.96248 24561 ft 359 kts 289°
2026-04-18 10:39 53.69668 -4.00094 24198 ft 357 kts 290°
2026-04-18 10:40 53.70602 -4.04024 23841 ft 355 kts 290°
2026-04-18 10:40 53.71428 -4.07874 23439 ft 351 kts 281°
2026-04-18 10:40 53.71819 -4.11915 23032 ft 349 kts 274°
2026-04-18 10:40 53.71953 -4.16005 22608 ft 348 kts 272°
2026-04-18 10:41 53.72092 -4.20078 22204 ft 347 kts 274°
2026-04-18 10:41 53.72259 -4.24137 21803 ft 346 kts 274°
2026-04-18 10:41 53.72419 -4.28180 21406 ft 345 kts 273°